Location: *
(43.2048°N, 0.1612°E)
Time: 17:41:09
(UTC+00:00)

Cosmos 2344 - Pass Details

Date: 30 September 2023
Orbit: 1214 x 3029 km, 63.3° (Epoch: 04 December)

Event Time Altitude Azimuth Distance (km) Brightness Sun altitude
Rises 04:58:48 0° 199° (SSW) 4,531 6.2 -11.1°
Reaches altitude 10° 05:01:54 10° 196° (SSW) 3,403 5.6 -10.5°
Maximum altitude 05:09:29 58° 119° (ESE) 1,412 4.2 -9.1°
Drops below altitude 10° 05:16:36 10° 43° (NE) 3,207 6.4 -7.8°
Sets 05:19:27 0° 39° (NE) 4,251 7.0 -7.3°
